Location: Jardres
(46.5695°N, 0.5651°E)
Time: 05:35:15
(UTC+00:00)

Daily predictions for brighter satellites

Satellite Brightness Start Highest point End
(mag) Time Altitude Azimuth Time Altitude Azimuth Time Altitude Azimuth
Cosmos 2082 Rocket 4.5 03:23:08 19° ENE 03:23:08 19° ENE 03:25:14 10° NE
NOSS 3-1 (C) 4.4 03:52:30 53° NNE 03:53:01 54° NE 04:01:24 10° ESE
COSMOS 2455 3.5 04:07:00 51° ESE 04:07:00 51° ESE 04:11:33 10° SE
Cosmos 2360 Rocket 4.3 04:09:26 17° NNE 04:11:28 20° NE 04:15:31 10° E
Cosmos 2333 Rocket 3.9 04:11:00 24° NNE 04:12:45 27° NE 04:17:36 10° ESE
ATLAS 3B R/B 4.5 04:14:24 22° N 04:15:58 23° N 04:21:55 10° ENE
Cosmos 1898 Rocket 4.1 04:29:28 52° SE 04:29:28 52° SE 04:33:29 10° SSE
Cosmos 2219 Rocket 4.5 04:25:49 12° N 04:28:50 17° NE 04:32:31 10° E
Cosmos 2322 Rocket 3.8 04:32:25 20° N 04:35:16 30° NE 04:40:11 10° ESE
Cosmos 1937 Rocket 3.4 04:49:25 81° NNE 04:49:35 83° ENE 04:54:43 10° SSE
USA 59 Rocket 1.2 04:54:18 34° S 04:54:18 34° S 04:57:27 10° SSE
Meteor 2-3 Rocket 4.2 04:47:38 10° S 04:53:16 62° E 04:58:53 10° NNE
Cosmos 2237 4.0 04:53:25 72° WNW 04:53:57 80° WSW 04:59:38 10° SSE
Aureole 1 Rocket 4.3 04:53:29 54° WNW 04:54:24 58° WSW 05:01:41 10° S
Cosmos 2058 Rocket 4.4 04:54:41 14° N 04:58:06 38° ENE 05:02:12 10° SE
COSMOS 2406 3.2 04:55:16 25° SSW 04:58:45 84° ESE 05:04:27 10° NNE
SKYMED 2 3.7 04:55:15 10° SSE 04:59:34 71° ENE 05:00:15 59° NNE
NOSS 3-1 (A) 4.3 04:57:15 30° NNW 05:01:08 64° NE 05:09:49 10° SE
NOSS 2-1 (E) 4.0 05:04:17 47° S 05:04:17 47° S 05:08:01 10° SSE
SL-16 R/B 2.3 05:01:03 34° NNW 05:03:33 72° ENE 05:09:12 10° SSE
Cosmos 2082 Rocket 2.4 05:05:01 49° NNW 05:05:01 49° NNW 05:09:50 10° NNE
CZ-4 R/B 4.0 05:03:28 10° NNE 05:08:06 69° ESE 05:12:41 10° S
SeaSat 1 4.4 05:06:18 10° N 05:07:29 15° N 05:07:29 15° N
BREEZE-M DEB (TANK) 4.0 05:12:02 39° ENE 05:12:02 39° ENE 05:13:32 10° ENE
Cosmos 1606 Rocket 4.5 05:14:42 34° SSW 05:14:42 34° SSW 05:17:21 10° S
Okean 1 4.5 05:11:24 19° NNE 05:13:25 36° ENE 05:16:44 10° SE
USA 234 4.1 05:07:55 10° ENE 05:13:46 36° N 05:15:57 29° NW
Helios 1A Rocket 2.9 05:12:18 10° SSE 05:15:34 57° ENE 05:15:55 53° NE
NOAA 12 4.0 05:13:10 10° NNE 05:18:29 87° E 05:23:45 10° SSW
NOSS 2-1 (C) 4.3 05:22:45 34° SW 05:22:45 34° SW 05:26:32 10° S
BREEZE-M DEB (TANK) 3.1 05:23:26 47° NNE 05:23:26 47° NNE 05:26:50 10° ENE
Cosmos 1980 Rocket 4.3 05:26:44 11° SW 05:26:44 11° SW 05:27:03 10° SW
BREEZE-M DEB (TANK) 2.0 05:24:36 70° WSW 05:24:51 77° S 05:30:20 10° ESE
Cosmos 2278 3.6 05:24:16 26° NNW 05:27:38 87° WSW 05:33:17 10° SSE
SL-4 R/B 2.1 05:28:33 43° NNE 05:28:33 43° NNE 05:31:33 10° E
FengYun 1-2 T 4.4 05:25:29 10° N 05:30:56 50° WNW 05:36:21 10° SW
Cosmos 2026 Rocket 3.8 05:27:08 10° SSW 05:33:12 80° W 05:39:20 10° N
Cosmos 1726 Rocket 3.9 05:38:10 39° W 05:38:10 39° W 05:41:57 10° SSW
Cosmos 841 Rocket 4.0 05:40:31 31° W 05:42:03 37° WNW 05:46:57 10° N
Cosmos 405 Rocket 3.6 05:39:05 10° SSE 05:42:09 41° E 05:45:16 10° NNE
NOSS 3-1 (C) 4.4 05:39:50 26° WNW 05:44:01 49° WSW 05:52:30 10° S
COSMOS 2455 3.9 05:50:11 23° W 05:50:56 24° WSW 05:55:33 10° SSW
Cosmos 1626 Rocket 3.8 05:51:00 10° S 05:55:24 73° E 05:59:49 10° NNE
Cosmos 2360 Rocket 2.1 05:51:12 13° NNW 05:56:15 88° WSW 06:01:52 10° SSE
Cosmos 2333 Rocket 2.3 05:53:03 17° NW 05:57:28 61° WSW 06:03:05 10° S
Cosmos 1553 Rocket 4.1 05:51:58 10° N 05:58:24 88° E 06:04:50 10° S
Cosmos 1092 Rocket 4.0 05:53:57 10° SSW 06:00:07 58° WNW 06:06:17 10° N
Cosmos 1892 Rocket 4.1 05:56:12 10° SW 06:00:10 34° WNW 06:04:12 10° N
SMAP 4.2 05:56:25 10° NNE 06:00:54 46° E 06:05:23 10° S
Cosmos-2242 3.2 06:00:27 13° NNW 06:04:03 47° W 06:08:04 10° SSW
Meteor 2-2 Rocket 4.3 05:58:30 10° NNW 06:04:04 56° W 06:09:42 10° S
Cosmos 2237 Rocket 4.5 06:02:50 10° N 06:06:13 16° NE 06:09:34 10° ENE
COSMO-SKYMED 1 3.1 06:02:51 10° SSW 06:06:34 32° W 06:08:59 18° NW
Cosmos 1125 Rocket 4.3 06:03:02 10° NNW 06:08:11 50° ENE 06:13:15 10° SE
ATLAS 3B R/B 3.9 06:01:38 10° NW 06:09:01 41° NE 06:16:07 10° ESE
IRS-1D 4.2 06:09:16 10° N 06:13:33 29° WNW 06:17:53 10° WSW
Cosmos 2219 Rocket 2.3 06:08:02 10° NNW 06:13:44 78° ENE 06:19:22 10° SSE
Cosmos 2322 Rocket 2.4 06:14:14 11° NW 06:19:35 53° WSW 06:25:04 10° S
BREEZE-M DEB (TANK) 4.3 05:58:24 10° W 06:19:42 74° N 06:24:29 10° ENE
Okean 1-7 Rocket 4.4 06:20:49 10° S 06:25:13 55° E 06:29:36 10° NNE
Meteor 2-6 Rocket 4.4 06:20:17 10° NNW 06:26:12 66° W 06:32:04 10° S
Cosmos 1812 Rocket 3.5 06:23:41 10° N 06:28:01 88° E 06:32:21 10° S
IGS 5A 3.6 06:24:29 10° N 06:28:21 48° WNW 06:32:11 10° SW
Cosmos 1484 Rocket 3.1 06:26:27 10° N 06:29:32 32° WNW 06:32:35 10° SW
Cosmos 2266 Rocket 4.2 06:25:09 10° S 06:31:32 80° E 06:37:52 10° N
SJ-12 4.2 06:29:22 10° NNE 06:33:11 66° ESE 06:36:58 10° S
Cosmos 1602 Rocket 3.5 06:29:28 10° S 06:33:54 83° W 06:38:22 10° N
Cosmos 1437 Rocket 2.6 06:30:40 10° N 06:34:08 77° ENE 06:37:36 10° SSE
Cosmos 192 4.3 06:29:22 10° NNW 06:34:19 86° WSW 06:39:13 10° SSE
ATLAS 2AS CENTAUR R/B 3.1 06:27:41 10° SSW 06:34:43 72° SE 06:41:35 10° NE
Cosmos 2058 Rocket 4.3 06:32:19 10° NW 06:35:42 22° W 06:39:03 10° SW
Cosmos 1417 Rocket 4.5 06:30:08 10° N 06:36:17 86° W 06:42:28 10° S
Cosmos 2333 4.4 06:31:57 10° NW 06:37:32 54° WSW 06:43:02 10° S
SL-08 ROCKET BODY 4.4 06:32:32 10° SSW 06:38:16 57° WNW 06:44:02 10° N
Cosmos 1743 2.4 06:36:19 10° SSW 06:39:27 48° WNW 06:42:38 10° N
ARIANE 5 R/B 2.8 06:36:43 10° NNE 06:41:57 78° ESE 06:47:10 10° S
COSMOS 2406 4.4 06:39:33 10° W 06:43:45 21° NW 06:47:59 10° N
SL-16 R/B 3.6 06:43:09 10° WNW 06:46:59 19° W 06:50:49 10° SW
AQUARIUS 4.3 06:44:50 10° NNE 06:49:16 81° ESE 06:53:41 10° SSW
Cosmos 2082 Rocket 3.9 06:47:28 10° WNW 06:49:49 12° NW 06:52:10 10° N
COSMOS 2428 3.3 06:45:28 10° NNW 06:51:07 58° ENE 06:56:43 10° SE
USA 234 3.9 06:49:44 10° E 06:55:57 46° NNE 07:02:08 10° NW
MOS 1 Rocket 3.6 06:54:25 10° N 06:59:49 79° WNW 07:05:05 10° SSW
